Back to catalog

FENGYUN 1C DEB

AliveSSO
NORAD 33651·DEBRIS·🇨🇳 China

Launched May 10, 1999 from Taiyuan Satellite Launch Center

Loading…

Next Passes (next 24 hours)

TLE

FreshSource: Space-Track

Epoch: Sep 11, 2026, 09:11 UTC

1 33651U 99025DEL 26254.38314527  .00000157  00000-0  87176-4 0  9991
2 33651  98.6209 298.7210 0116355 346.3287  13.4747 14.20531254681421

Track FENGYUN 1C DEB in real time with AllMySat

Download on the App Store